Location: Unspecified
(57.0668°N, 0.0000°E)
Time: 07:12:58
(UTC+00:00)

CZ-6A DEB - Visible Passes

Search period start: 04 April 2026 00:00
Search period end: 14 April 2026 00:00
Orbit: 798 x 867 km, 98.8° (Epoch: 28 March)

Date Brightness Start Highest point End Pass type
(mag) Time Alt. Az. Time Alt. Az. Time Alt. Az.
4 Apr ? 04:38:16 10° NE 04:41:13 15° E 04:44:09 10° ESE visible
5 Apr ? 04:22:12 10° ENE 04:23:35 11° E 04:24:58 10° E visible
11 Apr ? 04:19:43 10° ENE 04:19:57 10° ENE 04:20:11 10° E visible
